Вернуться в каталог

DELTA 1 DEB

АктивенSSO
NORAD 13564·DEBRIS·🇺🇸 United States

Запущен Mar 5, 1978 с Vandenberg Space Force Base

Loading…

Ближайшие Пролёты (ближайшие 24 часа)

TLE

СвежийSource: Space-Track

Эпоха: Sep 13, 2026, 17:53 UTC

1 13564U 78026FB  26256.74568443  .00000337  00000-0  26346-3 0  9991
2 13564  98.8999 191.2511 0203717  76.5079 347.3026 13.89055817233041

Отслеживайте DELTA 1 DEB в реальном времени с AllMySat

Download on the App Store